Location: Pardubice
(50.0330°N, 15.7830°E)
Time: 10:16:28
(UTC+02:00)

Transit 4A - Visible Passes

Search period start: 07 October 2024 00:00
Search period end: 17 October 2024 00:00
Orbit: 865 x 977 km, 66.8° (Epoch: 06 October)

Date Brightness Start Highest point End Pass type
(mag) Time Alt. Az. Time Alt. Az. Time Alt. Az.
07 Oct 10.2 01:26:58 19° NNE 01:26:58 19° NNE 01:29:07 10° NNE visible
07 Oct 10.1 03:10:27 14° NNW 03:12:31 17° N 03:16:24 10° NE visible
07 Oct 10.0 04:56:20 10° NNW 05:01:13 23° NNE 05:06:11 10° ENE visible
08 Oct 10.2 01:35:43 18° N 01:35:43 18° N 01:38:08 10° NNE visible
08 Oct 10.2 03:19:12 13° NNW 03:22:02 17° N 03:25:56 10° NE visible
08 Oct 9.8 05:05:20 10° NNW 05:10:35 27° NNE 05:15:55 10° E visible
09 Oct 10.2 01:44:29 18° N 01:44:29 18° N 01:47:12 10° NNE visible
09 Oct 10.2 03:27:58 11° NNW 03:31:33 17° N 03:35:37 10° NE visible
09 Oct 9.5 05:14:17 10° NNW 05:19:53 33° NE 05:25:34 10° E visible
10 Oct 10.2 01:53:16 17° N 01:53:16 17° N 01:56:23 10° NNE visible
10 Oct 10.2 03:36:46 10° NNW 03:41:02 19° NNE 03:45:23 10° ENE visible
10 Oct 9.2 05:23:13 10° NNW 05:29:07 41° NE 05:35:06 10° ESE visible
11 Oct 10.6 00:18:37 10° NNE 00:18:37 10° NNE 00:18:42 10° NNE visible
11 Oct 10.2 02:02:06 17° N 02:02:06 17° N 02:05:40 10° NNE visible
11 Oct 10.1 03:45:50 10° NNW 03:50:29 21° NNE 03:55:11 10° ENE visible
11 Oct 8.8 05:32:09 10° NNW 05:38:17 52° NE 05:44:30 10° ESE visible
12 Oct 10.6 00:27:29 11° NNE 00:27:29 11° NNE 00:27:41 10° NNE visible
12 Oct 10.2 02:10:59 17° N 02:11:13 17° N 02:15:06 10° NE visible
12 Oct 9.9 03:54:52 10° NNW 03:59:53 24° NNE 04:04:57 10° E visible
12 Oct 8.3 05:41:06 10° NW 05:47:23 68° NE 05:53:44 10° SE visible
13 Oct 10.7 00:36:27 11° NNE 00:36:27 11° NNE 00:36:42 10° NNE visible
13 Oct 10.2 02:19:57 17° N 02:20:43 17° N 02:24:41 10° NE visible
13 Oct 9.7 04:03:50 10° NNW 04:09:13 29° NNE 04:14:41 10° E visible
13 Oct 8.0 05:50:04 10° NW 05:56:24 88° NE 06:02:48 10° SE visible
14 Oct 10.7 00:45:31 11° NNE 00:45:31 11° NNE 00:45:48 10° NNE visible
14 Oct 10.2 02:29:01 17° N 02:30:14 18° N 02:34:23 10° NE visible
14 Oct 9.4 04:12:48 10° NNW 04:18:30 35° NE 04:24:17 10° ESE visible
14 Oct 8.0 05:59:05 10° NW 06:05:21 70° WSW 06:11:42 10° SSE visible
15 Oct 10.7 00:54:43 11° NNE 00:54:43 11° NNE 00:55:00 10° NNE visible
15 Oct 10.1 02:38:15 18° N 02:39:42 20° NNE 02:44:10 10° ENE visible
15 Oct 9.0 04:21:46 10° NNW 04:27:43 44° NE 04:33:46 10° ESE visible
15 Oct 8.2 06:08:09 10° NW 06:14:14 52° WSW 06:20:23 10° S visible
15 Oct 9.5 19:35:22 10° SE 19:36:48 14° SE 19:36:48 14° SE visible
15 Oct 9.6 21:18:48 10° SSW 21:20:25 20° SSW 21:20:25 20° SSW visible
16 Oct 10.7 01:04:07 11° NNE 01:04:07 11° NNE 01:04:19 10° NE visible
16 Oct 10.0 02:47:40 20° N 02:49:07 22° NNE 02:53:57 10° ENE visible
16 Oct 8.5 04:31:13 13° NNW 04:36:51 56° NE 04:43:08 10° SE visible
16 Oct 8.5 06:17:19 10° NW 06:23:03 38° WSW 06:28:49 10° S visible
16 Oct 8.7 19:43:07 10° SSE 19:47:22 26° ESE 19:47:22 26° ESE visible
16 Oct 9.0 21:27:48 10° SW 21:30:59 33° SW 21:30:59 33° SW visible
